TimeEST,TemperatureF,Dew PointF,Humidity,Sea Level PressureIn,VisibilityMPH,Wind Direction,Wind SpeedMPH,Gust SpeedMPH,PrecipitationIn,Events,Conditions,WindDirDegrees,DateUTC
12:15 AM,32.0,32.0,100,30.00,1.0,Calm,Calm,-,N/A,Snow,Light Snow,0,2013-02-16 05:15:00
12:35 AM,32.0,32.0,100,29.99,1.2,Calm,Calm,-,0.01,Snow,Light Snow,0,2013-02-16 05:35:00
12:55 AM,32.0,32.0,100,29.99,1.2,Calm,Calm,-,0.01,Snow,Light Snow,0,2013-02-16 05:55:00
1:15 AM,32.0,32.0,100,29.98,2.0,Calm,Calm,-,N/A,Snow,Light Snow,0,2013-02-16 06:15:00
1:35 AM,32.0,32.0,100,29.99,1.2,SSW,4.6,-,N/A,Snow,Light Snow,210,2013-02-16 06:35:00
1:55 AM,32.0,32.0,100,29.98,2.5,South,3.5,-,N/A,Snow,Light Snow,180,2013-02-16 06:55:00
2:15 AM,32.0,32.0,100,29.97,2.0,Calm,Calm,-,N/A,Snow,Light Snow,0,2013-02-16 07:15:00
2:35 AM,32.0,32.0,100,29.97,1.2,Calm,Calm,-,N/A,,Mostly Cloudy,0,2013-02-16 07:35:00
2:55 AM,32.0,32.0,100,29.95,1.8,Calm,Calm,-,N/A,,Mostly Cloudy,0,2013-02-16 07:55:00
3:15 AM,32.0,32.0,100,29.96,2.0,Calm,Calm,-,N/A,,Overcast,0,2013-02-16 08:15:00
3:35 AM,32.0,32.0,100,29.94,2.0,Calm,Calm,-,N/A,,Overcast,0,2013-02-16 08:35:00
3:55 AM,32.0,32.0,100,29.96,3.0,Calm,Calm,-,N/A,,Overcast,0,2013-02-16 08:55:00
4:15 AM,32.0,32.0,100,29.96,10.0,Calm,Calm,-,N/A,,Overcast,0,2013-02-16 09:15:00
4:55 AM,32.0,30.2,93,29.96,10.0,Calm,Calm,-,N/A,,Mostly Cloudy,0,2013-02-16 09:55:00
5:15 AM,32.0,30.2,93,29.96,10.0,Calm,Calm,-,N/A,,Mostly Cloudy,0,2013-02-16 10:15:00
5:35 AM,32.0,30.2,93,29.96,10.0,NNW,4.6,-,N/A,,Scattered Clouds,330,2013-02-16 10:35:00
5:55 AM,32.0,28.4,87,29.96,10.0,NNW,5.8,-,N/A,,Clear,330,2013-02-16 10:55:00
6:15 AM,32.0,26.6,80,29.96,10.0,North,4.6,-,N/A,,Scattered Clouds,350,2013-02-16 11:15:00
6:55 AM,32.0,24.8,75,29.97,10.0,North,5.8,-,N/A,,Clear,350,2013-02-16 11:55:00
7:15 AM,30.2,26.6,86,29.97,10.0,NNW,5.8,-,N/A,,Clear,330,2013-02-16 12:15:00
7:55 AM,32.0,24.8,75,29.98,10.0,North,5.8,-,N/A,,Clear,350,2013-02-16 12:55:00
8:15 AM,32.0,23.0,69,29.99,10.0,NNW,5.8,-,N/A,,Clear,340,2013-02-16 13:15:00
8:35 AM,32.0,23.0,69,29.97,10.0,NNW,4.6,-,N/A,,Clear,340,2013-02-16 13:35:00
8:55 AM,32.0,24.8,75,29.98,10.0,North,5.8,-,N/A,,Clear,350,2013-02-16 13:55:00
9:15 AM,32.0,24.8,75,29.97,10.0,North,4.6,-,N/A,,Clear,360,2013-02-16 14:15:00
9:35 AM,32.0,24.8,75,29.97,10.0,NE,6.9,-,N/A,,Clear,50,2013-02-16 14:35:00
9:55 AM,32.0,23.0,69,29.96,10.0,North,6.9,-,N/A,,Clear,350,2013-02-16 14:55:00
10:15 AM,32.0,23.0,69,29.96,10.0,NE,6.9,-,N/A,,Clear,50,2013-02-16 15:15:00
10:35 AM,32.0,23.0,69,29.96,10.0,NNE,6.9,-,N/A,,Clear,20,2013-02-16 15:35:00
1:15 PM,33.8,23.0,65,29.90,10.0,North,9.2,-,N/A,,Mostly Cloudy,350,2013-02-16 18:15:00
1:35 PM,33.8,23.0,65,29.90,10.0,NNW,5.8,-,N/A,,Mostly Cloudy,340,2013-02-16 18:35:00
1:55 PM,33.8,23.0,65,29.89,10.0,North,10.4,-,N/A,,Overcast,10,2013-02-16 18:55:00
2:15 PM,33.8,23.0,65,29.88,10.0,NNW,8.1,-,N/A,,Mostly Cloudy,340,2013-02-16 19:15:00
2:35 PM,32.0,21.2,64,29.89,10.0,NNW,9.2,-,N/A,,Scattered Clouds,330,2013-02-16 19:35:00
2:55 PM,32.0,21.2,64,29.90,10.0,NW,8.1,-,N/A,,Scattered Clouds,320,2013-02-16 19:55:00
3:15 PM,32.0,19.4,60,29.89,10.0,NNW,8.1,-,N/A,,Scattered Clouds,330,2013-02-16 20:15:00
3:35 PM,32.0,19.4,60,29.88,10.0,North,9.2,-,N/A,,Clear,350,2013-02-16 20:35:00
3:55 PM,32.0,19.4,60,29.88,10.0,North,6.9,-,N/A,,Clear,350,2013-02-16 20:55:00
4:15 PM,32.0,19.4,60,29.88,10.0,NNW,6.9,-,N/A,,Scattered Clouds,340,2013-02-16 21:15:00
4:55 PM,32.0,17.6,55,29.88,10.0,North,8.1,-,N/A,,Scattered Clouds,350,2013-02-16 21:55:00
5:15 PM,32.0,17.6,55,29.88,10.0,North,8.1,-,N/A,,Scattered Clouds,350,2013-02-16 22:15:00
5:35 PM,32.0,17.6,55,29.89,10.0,NNW,8.1,-,N/A,,Clear,330,2013-02-16 22:35:00
5:55 PM,32.0,17.6,55,29.89,10.0,NNW,6.9,-,N/A,,Scattered Clouds,340,2013-02-16 22:55:00
6:15 PM,32.0,14.0,48,29.88,10.0,North,8.1,-,N/A,,Scattered Clouds,360,2013-02-16 23:15:00
6:55 PM,32.0,15.8,51,29.88,10.0,North,8.1,-,N/A,,Clear,360,2013-02-16 23:55:00
7:15 PM,32.0,15.8,51,29.87,10.0,North,6.9,-,N/A,,Clear,350,2013-02-17 00:15:00
7:35 PM,32.0,14.0,48,29.86,10.0,North,15.0,-,N/A,,Clear,10,2013-02-17 00:35:00
8:15 PM,32.0,14.0,48,29.86,10.0,North,10.4,-,N/A,,Clear,350,2013-02-17 01:15:00
8:35 PM,30.2,14.0,51,29.86,10.0,NNW,9.2,-,N/A,,Clear,340,2013-02-17 01:35:00
8:55 PM,30.2,14.0,51,29.86,10.0,North,13.8,19.6,N/A,,Clear,360,2013-02-17 01:55:00
9:15 PM,30.2,14.0,51,29.86,10.0,North,9.2,12.7,N/A,,Clear,350,2013-02-17 02:15:00
10:15 PM,30.2,12.2,47,29.84,10.0,North,12.7,17.3,N/A,,Clear,350,2013-02-17 03:15:00
10:55 PM,30.2,10.4,44,29.83,10.0,North,11.5,-,N/A,,Scattered Clouds,350,2013-02-17 03:55:00
11:15 PM,30.2,8.6,40,29.83,10.0,North,13.8,24.2,N/A,,Scattered Clouds,360,2013-02-17 04:15:00
11:35 PM,28.4,8.6,43,29.81,10.0,North,9.2,20.7,N/A,,Clear,350,2013-02-17 04:35:00
11:55 PM,28.4,6.8,40,29.81,10.0,North,15.0,21.9,N/A,,Scattered Clouds,350,2013-02-17 04:55:00